Regional Weather Roundup
Issued by NWS

Home | Current Version | Previous Version | Graphics & Text | Print | Product List | Glossary On
Versions: 1 2 3 4 5 6 7 8 9 10 11 12 13 14 15 16 17 18 19 20 21 22 23 24 25 26 27 28 29 30 31 32 33 34 35 36 37 38 39 40 41 42 43 44 45 46 47 48 49 50
000
ASUS45 KABQ 011801
RWRNM
WEATHER ROUNDUP FOR NEW MEXICO
NATIONAL WEATHER SERVICE ALBUQUERQUE NM
1200 PM MDT WED OCT 01 2014

NOTE: "FAIR" MEANS FEW OR NO CLOUDS BELOW 12,000 FEET AGL WITH NO
       SIGNIFICANT WEATHER OR OBSTRUCTIONS TO VISION.

      THIS PRODUCT IS RELEASED AS TWO VERSIONS.  ONE VERSION NEAR
      THE TOP OF THE HOUR CONTAINING PRELIMINARY DATA FROM ALBUQUERQUE
      AND OTHER STATIONS.  A FINAL VERSION WITH ADDITIONAL DATA IS
      ISSUED ABOUT 10 MINUTES AFTER THE HOUR.

NMZ501-503-504-510>518-011900-
NORTHWEST PLATEAU/NORTHCENTRAL MOUNTAINS

CITY           SKY/WX    TMP DP  RH WIND       PRES   REMARKS
FARMINGTON     SUNNY     64  38  38 CALM      29.97F
6HR MIN TEMP:  46; 6HR MAX TEMP:  64;

LOS ALAMOS     MOSUNNY   61  33  34 S13       30.04F
SANTA FE       SUNNY     66  32  28 SW12G18   30.01F
6HR MIN TEMP:  42; 6HR MAX TEMP:  67;

TAOS           SUNNY     61  32  33 SW12G20   30.04F
ANGEL FIRE     FAIR      57  29  34 W13G21    30.08F

$$
NMZ402-403-502-505>509-011900-
WESTCENTRAL MOUNTAINS/SOUTHWEST MOUNTAINS

CITY           SKY/WX    TMP DP  RH WIND       PRES   REMARKS
GALLUP         SUNNY     64  37  36 W10       30.04F
6HR MIN TEMP:  40; 6HR MAX TEMP:  64;

GRANTS         SUNNY     66  32  28 NW13G22   30.04F
SILVER CITY    SUNNY     70  32  24 NW12G20   30.04F

$$
NMZ407-409-411-412-011900-
SOUTHERN DESERTS

CITY           SKY/WX    TMP DP  RH WIND       PRES   REMARKS
LORDSBURG      FAIR      72  36  26 MISG      29.99S
DEMING         SUNNY     75  36  24 VRB7      29.97F
6HR MIN TEMP:  49; 6HR MAX TEMP:  75;

LAS CRUCES     SUNNY     75  32  20 SW12      29.99S
HOLLOMAN AFB   SUNNY     78  37  22 VRB6      29.93F
ALAMOGORDO     SUNNY     77  37  24 SW8       29.95F
T OR C         SUNNY     73  34  23 VRB3      29.96F
6HR MIN TEMP:  55; 6HR MAX TEMP:  74;


$$
NMZ519>523-011900-
CENTRAL VALLEYS/CENTRAL HIGHLANDS

CITY           SKY/WX    TMP DP  RH WIND       PRES   REMARKS
ALBUQUERQUE    MOSUNNY   68  35  29 SW9       29.99F
6HR MIN TEMP:  48; 6HR MAX TEMP:  68;

DOUBLE EAGLE   MOSUNNY   68  32  26 SW13G22   30.00F
CLINES CORNERS SUNNY     66  34  30 W15       30.03F
6HR MIN TEMP:  40; 6HR MAX TEMP:  66;

BELEN          FAIR      70  36  28 N5        29.98F
SOCORRO        FAIR      72  37  27 SE7       29.97F
6HR MIN TEMP:  48; 6HR MAX TEMP:  72;


$$
NMZ524>526-539-540-011900-
SOUTHCENTRAL MOUNTAINS

CITY           SKY/WX    TMP DP  RH WIND       PRES   REMARKS
RUIDOSO        NOT AVBL

$$
NMZ527>531-011900-
NORTHEAST HIGHLANDS/NORTHEAST PLAINS

CITY           SKY/WX    TMP DP  RH WIND       PRES   REMARKS
LAS VEGAS      SUNNY     68  32  26 SW18      29.99F
6HR MIN TEMP:  41; 6HR MAX TEMP:  68;

RATON          SUNNY     66  31  27 S10       29.94F
6HR MIN TEMP:  37; 6HR MAX TEMP:  66;

CLAYTON        SUNNY     73  31  21 S8        29.90F
6HR MIN TEMP:  52; 6HR MAX TEMP:  73;


$$
NMZ532>537-011900-
EASTCENTRAL PLAINS

CITY           SKY/WX    TMP DP  RH WIND       PRES   REMARKS
TUCUMCARI      SUNNY     76  39  26 VRB7      29.88F
6HR MIN TEMP:  46; 6HR MAX TEMP:  76;

CANNON AFB     SUNNY     75  38  26 VRB3      29.91F
6HR MIN TEMP:  52; 6HR MAX TEMP:  76;

CLOVIS AIRPORT   N/A     75  39  27 CALM      29.93F

$$
NMZ028-029-538-011900-
SOUTHEAST PLAINS

CITY           SKY/WX    TMP DP  RH WIND       PRES   REMARKS
ROSWELL        SUNNY     76  45  33 VRB3      29.90F
6HR MIN TEMP:  50; 6HR MAX TEMP:  76;

CARLSBAD       SUNNY     81  50  33 SE6       29.88F
6HR MIN TEMP:  56; 6HR MAX TEMP:  81;

HOBBS          SUNNY     77  48  36 SW8       29.91S


$$


USA.gov is the U.S. government's official web portal to all federal, state and local government web resources and services.